Location: Alladorf
(49.9620°N, 11.3790°E)
Time: 21:04:08
(UTC+00:00)

Cosmos 1833 Rocket - Pass Details

Date: 29 November 2020
Orbit: 834 x 838 km, 71.0° (Epoch: 25 January)

Event Time Altitude Azimuth Distance (km) Brightness Sun altitude
Exits shadow 05:07:22 - 337° (NNW) 2,664 4.9 -15.6°
Reaches altitude 10° 05:07:56 10° 339° (NNW) 2,460 4.8 -15.5°
Maximum altitude 05:13:20 45° 52° (NE) 1,131 3.6 -14.7°
Drops below altitude 10° 05:18:42 10° 125° (SE) 2,444 6.3 -13.9°
Sets 05:21:14 0° 132° (SE) 3,374 7.1 -13.5°
